owner,sensor,date,latitude,longitude,vertical_datum,sea_water_temperature,qcFlag 
DISL,ioos:station:DISL:CATA:1,2019-04-01T00:30:00Z,30.3085,-88.1395,0.0,17.64,11111222 
DISL,ioos:station:DISL:CATA:1,2019-04-01T01:30:00Z,30.3085,-88.1395,0.0,17.45,11111222 
DISL,ioos:station:DISL:CATA:1,2019-04-01T02:30:00Z,30.3085,-88.1395,0.0,17.32,11111222 
DISL,ioos:station:DISL:CATA:1,2019-04-01T03:30:00Z,30.3085,-88.1395,0.0,17.35,11111222 
DISL,ioos:station:DISL:CATA:1,2019-04-01T04:30:00Z,30.3085,-88.1395,0.0,17.25,11111222 
DISL,ioos:station:DISL:CATA:1,2019-04-01T05:30:00Z,30.3085,-88.1395,0.0,17.28,11111222 
DISL,ioos:station:DISL:CATA:1,2019-04-01T06:30:00Z,30.3085,-88.1395,0.0,16.14,11111222 
DISL,ioos:station:DISL:CATA:1,2019-04-01T07:30:00Z,30.3085,-88.1395,0.0,15.62,11111222 
DISL,ioos:station:DISL:CATA:1,2019-04-01T08:30:00Z,30.3085,-88.1395,0.0,15.04,11111222 
DISL,ioos:station:DISL:CATA:1,2019-04-01T09:30:00Z,30.3085,-88.1395,0.0,15.71,11111222 
DISL,ioos:station:DISL:CATA:1,2019-04-01T10:30:00Z,30.3085,-88.1395,0.0,15.67,11111222 
DISL,ioos:station:DISL:CATA:1,2019-04-01T11:30:00Z,30.3085,-88.1395,0.0,15.67,11111222 
DISL,ioos:station:DISL:CATA:1,2019-04-01T12:30:00Z,30.3085,-88.1395,0.0,15.53,11111222 
DISL,ioos:station:DISL:CATA:1,2019-04-01T13:30:00Z,30.3085,-88.1395,0.0,15.58,11111222 
DISL,ioos:station:DISL:CATA:1,2019-04-01T14:30:00Z,30.3085,-88.1395,0.0,15.41,11111222 
DISL,ioos:station:DISL:CATA:1,2019-04-01T15:30:00Z,30.3085,-88.1395,0.0,15.54,11111222 
DISL,ioos:station:DISL:CATA:1,2019-04-01T16:30:00Z,30.3085,-88.1395,0.0,15.86,11111222 
DISL,ioos:station:DISL:CATA:1,2019-04-01T17:30:00Z,30.3085,-88.1395,0.0,16.32,11111222 
DISL,ioos:station:DISL:CATA:1,2019-04-01T18:30:00Z,30.3085,-88.1395,0.0,16.41,11111222 
DISL,ioos:station:DISL:CATA:1,2019-04-01T19:30:00Z,30.3085,-88.1395,0.0,16.22,11111222 
DISL,ioos:station:DISL:CATA:1,2019-04-01T20:30:00Z,30.3085,-88.1395,0.0,16.49,11111222 
DISL,ioos:station:DISL:CATA:1,2019-04-01T21:30:00Z,30.3085,-88.1395,0.0,16.6,11111222 
DISL,ioos:station:DISL:CATA:1,2019-04-01T22:30:00Z,30.3085,-88.1395,0.0,16.65,11111222 
DISL,ioos:station:DISL:CATA:1,2019-04-01T23:30:00Z,30.3085,-88.1395,0.0,16.68,11111222 
DISL,ioos:station:DISL:CATA:1,2019-04-02T00:30:00Z,30.3085,-88.1395,0.0,16.85,11111222 
DISL,ioos:station:DISL:CATA:1,2019-04-02T01:30:00Z,30.3085,-88.1395,0.0,17.02,11111222 
DISL,ioos:station:DISL:CATA:1,2019-04-02T02:30:00Z,30.3085,-88.1395,0.0,17.0,11111222 
DISL,ioos:station:DISL:CATA:1,2019-04-02T03:30:00Z,30.3085,-88.1395,0.0,16.93,11111222 
DISL,ioos:station:DISL:CATA:1,2019-04-02T04:30:00Z,30.3085,-88.1395,0.0,16.91,11111222 
DISL,ioos:station:DISL:CATA:1,2019-04-02T06:00:00Z,30.3085,-88.1395,0.0,17.12,11111222 
DISL,ioos:station:DISL:CATA:1,2019-04-02T06:30:00Z,30.3085,-88.1395,0.0,17.13,11111222 
DISL,ioos:station:DISL:CATA:1,2019-04-02T07:30:00Z,30.3085,-88.1395,0.0,16.59,11111222 
DISL,ioos:station:DISL:CATA:1,2019-04-02T08:30:00Z,30.3085,-88.1395,0.0,16.21,11111222 
DISL,ioos:station:DISL:CATA:1,2019-04-02T09:30:00Z,30.3085,-88.1395,0.0,15.92,11111222 
DISL,ioos:station:DISL:CATA:1,2019-04-02T10:30:00Z,30.3085,-88.1395,0.0,16.15,11111222 
DISL,ioos:station:DISL:CATA:1,2019-04-02T11:30:00Z,30.3085,-88.1395,0.0,15.98,11111222 
DISL,ioos:station:DISL:CATA:1,2019-04-02T12:30:00Z,30.3085,-88.1395,0.0,16.02,11111222 
DISL,ioos:station:DISL:CATA:1,2019-04-02T13:30:00Z,30.3085,-88.1395,0.0,15.93,11111222 
DISL,ioos:station:DISL:CATA:1,2019-04-02T14:30:00Z,30.3085,-88.1395,0.0,15.91,11111222 
DISL,ioos:station:DISL:CATA:1,2019-04-02T15:30:00Z,30.3085,-88.1395,0.0,16.27,11111222 
DISL,ioos:station:DISL:CATA:1,2019-04-02T16:30:00Z,30.3085,-88.1395,0.0,16.67,11111222 
DISL,ioos:station:DISL:CATA:1,2019-04-02T17:30:00Z,30.3085,-88.1395,0.0,17.01,11111222 
DISL,ioos:station:DISL:CATA:1,2019-04-02T18:30:00Z,30.3085,-88.1395,0.0,16.97,11111222 
DISL,ioos:station:DISL:CATA:1,2019-04-02T19:30:00Z,30.3085,-88.1395,0.0,17.79,11111222 
DISL,ioos:station:DISL:CATA:1,2019-04-02T20:30:00Z,30.3085,-88.1395,0.0,17.87,11111222 
DISL,ioos:station:DISL:CATA:1,2019-04-02T21:30:00Z,30.3085,-88.1395,0.0,17.78,11111222 
DISL,ioos:station:DISL:CATA:1,2019-04-02T22:30:00Z,30.3085,-88.1395,0.0,17.92,11111222 
DISL,ioos:station:DISL:CATA:1,2019-04-02T23:30:00Z,30.3085,-88.1395,0.0,17.92,11111222 
DISL,ioos:station:DISL:CATA:1,2019-04-03T00:30:00Z,30.3085,-88.1395,0.0,17.67,11111222 
DISL,ioos:station:DISL:CATA:1,2019-04-03T01:30:00Z,30.3085,-88.1395,0.0,17.59,11111222 
DISL,ioos:station:DISL:CATA:1,2019-04-03T02:30:00Z,30.3085,-88.1395,0.0,17.46,11111222 
DISL,ioos:station:DISL:CATA:1,2019-04-03T03:30:00Z,30.3085,-88.1395,0.0,17.36,11111222 
DISL,ioos:station:DISL:CATA:1,2019-04-03T04:30:00Z,30.3085,-88.1395,0.0,17.4,11111222 
DISL,ioos:station:DISL:CATA:1,2019-04-03T05:30:00Z,30.3085,-88.1395,0.0,17.36,11111222 
DISL,ioos:station:DISL:CATA:1,2019-04-03T06:30:00Z,30.3085,-88.1395,0.0,17.35,11111222 
DISL,ioos:station:DISL:CATA:1,2019-04-03T07:30:00Z,30.3085,-88.1395,0.0,17.52,11111222 
DISL,ioos:station:DISL:CATA:1,2019-04-03T08:30:00Z,30.3085,-88.1395,0.0,17.34,11111222 
DISL,ioos:station:DISL:CATA:1,2019-04-03T09:30:00Z,30.3085,-88.1395,0.0,16.74,11111222 
DISL,ioos:station:DISL:CATA:1,2019-04-03T10:30:00Z,30.3085,-88.1395,0.0,16.61,11111222 
DISL,ioos:station:DISL:CATA:1,2019-04-03T11:30:00Z,30.3085,-88.1395,0.0,16.51,11111222 
DISL,ioos:station:DISL:CATA:1,2019-04-03T12:30:00Z,30.3085,-88.1395,0.0,16.42,11111222 
DISL,ioos:station:DISL:CATA:1,2019-04-03T13:30:00Z,30.3085,-88.1395,0.0,16.36,11111222 
DISL,ioos:station:DISL:CATA:1,2019-04-03T14:30:00Z,30.3085,-88.1395,0.0,16.39,11111222 
DISL,ioos:station:DISL:CATA:1,2019-04-03T15:30:00Z,30.3085,-88.1395,0.0,16.53,11111222 
DISL,ioos:station:DISL:CATA:1,2019-04-03T16:30:00Z,30.3085,-88.1395,0.0,16.72,11111222 
DISL,ioos:station:DISL:CATA:1,2019-04-03T17:30:00Z,30.3085,-88.1395,0.0,16.95,11111222 
DISL,ioos:station:DISL:CATA:1,2019-04-03T18:30:00Z,30.3085,-88.1395,0.0,17.12,11111222 
DISL,ioos:station:DISL:CATA:1,2019-04-03T19:30:00Z,30.3085,-88.1395,0.0,17.57,11111222 
DISL,ioos:station:DISL:CATA:1,2019-04-03T20:30:00Z,30.3085,-88.1395,0.0,17.54,11111222 
DISL,ioos:station:DISL:CATA:1,2019-04-03T21:30:00Z,30.3085,-88.1395,0.0,18.35,11111222 
DISL,ioos:station:DISL:CATA:1,2019-04-03T22:30:00Z,30.3085,-88.1395,0.0,18.19,11111222 
DISL,ioos:station:DISL:CATA:1,2019-04-03T23:30:00Z,30.3085,-88.1395,0.0,18.07,11111222 
DISL,ioos:station:DISL:CATA:1,2019-04-04T00:30:00Z,30.3085,-88.1395,0.0,18.08,11111222 
DISL,ioos:station:DISL:CATA:1,2019-04-04T01:30:00Z,30.3085,-88.1395,0.0,18.09,11111222 
DISL,ioos:station:DISL:CATA:1,2019-04-04T02:30:00Z,30.3085,-88.1395,0.0,18.0,11111222 
DISL,ioos:station:DISL:CATA:1,2019-04-04T03:30:00Z,30.3085,-88.1395,0.0,17.91,11111222 
DISL,ioos:station:DISL:CATA:1,2019-04-04T04:30:00Z,30.3085,-88.1395,0.0,17.93,11111222 
DISL,ioos:station:DISL:CATA:1,2019-04-04T05:30:00Z,30.3085,-88.1395,0.0,18.04,11111222 
DISL,ioos:station:DISL:CATA:1,2019-04-04T06:30:00Z,30.3085,-88.1395,0.0,18.03,11111222 
DISL,ioos:station:DISL:CATA:1,2019-04-04T07:30:00Z,30.3085,-88.1395,0.0,17.99,11111222 
DISL,ioos:station:DISL:CATA:1,2019-04-04T08:30:00Z,30.3085,-88.1395,0.0,17.92,11111222 
DISL,ioos:station:DISL:CATA:1,2019-04-04T09:30:00Z,30.3085,-88.1395,0.0,17.9,11111222 
DISL,ioos:station:DISL:CATA:1,2019-04-04T10:30:00Z,30.3085,-88.1395,0.0,17.78,11111222 
DISL,ioos:station:DISL:CATA:1,2019-04-04T11:30:00Z,30.3085,-88.1395,0.0,17.73,11111222 
DISL,ioos:station:DISL:CATA:1,2019-04-04T12:30:00Z,30.3085,-88.1395,0.0,17.72,11111222 
DISL,ioos:station:DISL:CATA:1,2019-04-04T13:30:00Z,30.3085,-88.1395,0.0,17.73,11111222 
DISL,ioos:station:DISL:CATA:1,2019-04-04T14:30:00Z,30.3085,-88.1395,0.0,17.72,11111222 
DISL,ioos:station:DISL:CATA:1,2019-04-04T15:30:00Z,30.3085,-88.1395,0.0,17.74,11111222 
DISL,ioos:station:DISL:CATA:1,2019-04-04T16:30:00Z,30.3085,-88.1395,0.0,17.64,11111222 
DISL,ioos:station:DISL:CATA:1,2019-04-04T17:30:00Z,30.3085,-88.1395,0.0,17.67,11111222 
DISL,ioos:station:DISL:CATA:1,2019-04-04T18:30:00Z,30.3085,-88.1395,0.0,17.64,11111222 
DISL,ioos:station:DISL:CATA:1,2019-04-04T19:30:00Z,30.3085,-88.1395,0.0,17.61,11111222 
DISL,ioos:station:DISL:CATA:1,2019-04-04T20:30:00Z,30.3085,-88.1395,0.0,17.61,11111222 
DISL,ioos:station:DISL:CATA:1,2019-04-04T21:30:00Z,30.3085,-88.1395,0.0,17.6,11111222 
DISL,ioos:station:DISL:CATA:1,2019-04-04T22:30:00Z,30.3085,-88.1395,0.0,17.6,11111222 
DISL,ioos:station:DISL:CATA:1,2019-04-04T23:30:00Z,30.3085,-88.1395,0.0,17.63,11111222 
DISL,ioos:station:DISL:CATA:1,2019-04-05T00:30:00Z,30.3085,-88.1395,0.0,17.57,11111222 
DISL,ioos:station:DISL:CATA:1,2019-04-05T01:30:00Z,30.3085,-88.1395,0.0,17.55,11111222 
DISL,ioos:station:DISL:CATA:1,2019-04-05T02:30:00Z,30.3085,-88.1395,0.0,17.58,11111222 
DISL,ioos:station:DISL:CATA:1,2019-04-05T03:30:00Z,30.3085,-88.1395,0.0,17.55,11111222 
DISL,ioos:station:DISL:CATA:1,2019-04-05T04:30:00Z,30.3085,-88.1395,0.0,17.58,11111222 
DISL,ioos:station:DISL:CATA:1,2019-04-05T05:30:00Z,30.3085,-88.1395,0.0,17.51,11111222 
DISL,ioos:station:DISL:CATA:1,2019-04-05T06:30:00Z,30.3085,-88.1395,0.0,17.48,11111222 
DISL,ioos:station:DISL:CATA:1,2019-04-05T07:30:00Z,30.3085,-88.1395,0.0,17.48,11111222 
DISL,ioos:station:DISL:CATA:1,2019-04-05T08:30:00Z,30.3085,-88.1395,0.0,17.49,11111222 
DISL,ioos:station:DISL:CATA:1,2019-04-05T09:30:00Z,30.3085,-88.1395,0.0,17.52,11111222 
DISL,ioos:station:DISL:CATA:1,2019-04-05T10:30:00Z,30.3085,-88.1395,0.0,17.53,11111222 
DISL,ioos:station:DISL:CATA:1,2019-04-05T11:30:00Z,30.3085,-88.1395,0.0,17.51,11111222 
DISL,ioos:station:DISL:CATA:1,2019-04-05T12:30:00Z,30.3085,-88.1395,0.0,17.55,11111222 
DISL,ioos:station:DISL:CATA:1,2019-04-05T13:30:00Z,30.3085,-88.1395,0.0,17.57,11111222 
DISL,ioos:station:DISL:CATA:1,2019-04-05T14:30:00Z,30.3085,-88.1395,0.0,17.57,11111222 
DISL,ioos:station:DISL:CATA:1,2019-04-05T15:30:00Z,30.3085,-88.1395,0.0,17.62,11111222 
DISL,ioos:station:DISL:CATA:1,2019-04-05T16:30:00Z,30.3085,-88.1395,0.0,17.62,11111222 
DISL,ioos:station:DISL:CATA:1,2019-04-05T17:30:00Z,30.3085,-88.1395,0.0,17.71,11111222 
DISL,ioos:station:DISL:CATA:1,2019-04-05T18:30:00Z,30.3085,-88.1395,0.0,17.75,11111222 
DISL,ioos:station:DISL:CATA:1,2019-04-05T19:30:00Z,30.3085,-88.1395,0.0,17.74,11111222 
DISL,ioos:station:DISL:CATA:1,2019-04-05T20:30:00Z,30.3085,-88.1395,0.0,17.74,11111222 
DISL,ioos:station:DISL:CATA:1,2019-04-05T21:30:00Z,30.3085,-88.1395,0.0,17.94,11111222 
DISL,ioos:station:DISL:CATA:1,2019-04-05T22:30:00Z,30.3085,-88.1395,0.0,18.03,11111222 
DISL,ioos:station:DISL:CATA:1,2019-04-05T23:30:00Z,30.3085,-88.1395,0.0,18.01,11111222 
DISL,ioos:station:DISL:CATA:1,2019-04-06T00:30:00Z,30.3085,-88.1395,0.0,17.95,11111222 
DISL,ioos:station:DISL:CATA:1,2019-04-06T01:30:00Z,30.3085,-88.1395,0.0,17.91,11111222 
DISL,ioos:station:DISL:CATA:1,2019-04-06T02:30:00Z,30.3085,-88.1395,0.0,17.94,11111222 
DISL,ioos:station:DISL:CATA:1,2019-04-06T03:30:00Z,30.3085,-88.1395,0.0,17.93,11111222 
DISL,ioos:station:DISL:CATA:1,2019-04-06T04:30:00Z,30.3085,-88.1395,0.0,17.92,11111222 
DISL,ioos:station:DISL:CATA:1,2019-04-06T05:30:00Z,30.3085,-88.1395,0.0,17.96,11111222 
DISL,ioos:station:DISL:CATA:1,2019-04-06T06:30:00Z,30.3085,-88.1395,0.0,17.98,11111222 
DISL,ioos:station:DISL:CATA:1,2019-04-06T07:30:00Z,30.3085,-88.1395,0.0,17.98,11111222 
DISL,ioos:station:DISL:CATA:1,2019-04-06T08:30:00Z,30.3085,-88.1395,0.0,17.96,11111222 
DISL,ioos:station:DISL:CATA:1,2019-04-06T09:30:00Z,30.3085,-88.1395,0.0,17.94,11111222 
DISL,ioos:station:DISL:CATA:1,2019-04-06T10:30:00Z,30.3085,-88.1395,0.0,17.96,11111222 
DISL,ioos:station:DISL:CATA:1,2019-04-06T11:30:00Z,30.3085,-88.1395,0.0,17.95,11111222 
DISL,ioos:station:DISL:CATA:1,2019-04-06T12:30:00Z,30.3085,-88.1395,0.0,17.98,11111222 
DISL,ioos:station:DISL:CATA:1,2019-04-06T13:30:00Z,30.3085,-88.1395,0.0,17.98,11111222 
DISL,ioos:station:DISL:CATA:1,2019-04-06T14:30:00Z,30.3085,-88.1395,0.0,17.98,11111222 
DISL,ioos:station:DISL:CATA:1,2019-04-06T15:30:00Z,30.3085,-88.1395,0.0,18.14,11111222 
DISL,ioos:station:DISL:CATA:1,2019-04-06T16:30:00Z,30.3085,-88.1395,0.0,18.57,11111222 
DISL,ioos:station:DISL:CATA:1,2019-04-06T17:30:00Z,30.3085,-88.1395,0.0,18.01,11111222 
DISL,ioos:station:DISL:CATA:1,2019-04-06T18:30:00Z,30.3085,-88.1395,0.0,17.99,11111222 
DISL,ioos:station:DISL:CATA:1,2019-04-06T19:30:00Z,30.3085,-88.1395,0.0,18.39,11111222 
DISL,ioos:station:DISL:CATA:1,2019-04-06T20:30:00Z,30.3085,-88.1395,0.0,19.46,11111222 
DISL,ioos:station:DISL:CATA:1,2019-04-06T21:30:00Z,30.3085,-88.1395,0.0,19.4,11111222 
DISL,ioos:station:DISL:CATA:1,2019-04-06T22:30:00Z,30.3085,-88.1395,0.0,19.6,11111222 
DISL,ioos:station:DISL:CATA:1,2019-04-06T23:30:00Z,30.3085,-88.1395,0.0,19.87,11111222 
DISL,ioos:station:DISL:CATA:1,2019-04-07T00:30:00Z,30.3085,-88.1395,0.0,19.71,11111222 
DISL,ioos:station:DISL:CATA:1,2019-04-07T01:30:00Z,30.3085,-88.1395,0.0,19.23,11111222 
DISL,ioos:station:DISL:CATA:1,2019-04-07T02:30:00Z,30.3085,-88.1395,0.0,18.97,11111222 
DISL,ioos:station:DISL:CATA:1,2019-04-07T03:30:00Z,30.3085,-88.1395,0.0,19.27,11111222 
DISL,ioos:station:DISL:CATA:1,2019-04-07T04:30:00Z,30.3085,-88.1395,0.0,19.29,11111222 
DISL,ioos:station:DISL:CATA:1,2019-04-07T05:30:00Z,30.3085,-88.1395,0.0,19.31,11111222 
DISL,ioos:station:DISL:CATA:1,2019-04-07T06:30:00Z,30.3085,-88.1395,0.0,19.31,11111222 
DISL,ioos:station:DISL:CATA:1,2019-04-07T07:30:00Z,30.3085,-88.1395,0.0,19.0,11111222 
DISL,ioos:station:DISL:CATA:1,2019-04-07T08:30:00Z,30.3085,-88.1395,0.0,19.19,11111222 
DISL,ioos:station:DISL:CATA:1,2019-04-07T09:30:00Z,30.3085,-88.1395,0.0,19.14,11111222 
DISL,ioos:station:DISL:CATA:1,2019-04-07T10:30:00Z,30.3085,-88.1395,0.0,19.17,11111222 
DISL,ioos:station:DISL:CATA:1,2019-04-07T11:30:00Z,30.3085,-88.1395,0.0,19.26,11111222 
DISL,ioos:station:DISL:CATA:1,2019-04-07T12:30:00Z,30.3085,-88.1395,0.0,19.32,11111222 
DISL,ioos:station:DISL:CATA:1,2019-04-07T13:30:00Z,30.3085,-88.1395,0.0,19.32,11111222 
DISL,ioos:station:DISL:CATA:1,2019-04-07T14:30:00Z,30.3085,-88.1395,0.0,19.43,11111222 
DISL,ioos:station:DISL:CATA:1,2019-04-07T15:30:00Z,30.3085,-88.1395,0.0,19.51,11111222 
DISL,ioos:station:DISL:CATA:1,2019-04-07T16:30:00Z,30.3085,-88.1395,0.0,19.71,11111222 
DISL,ioos:station:DISL:CATA:1,2019-04-07T17:30:00Z,30.3085,-88.1395,0.0,19.88,11111222 
DISL,ioos:station:DISL:CATA:1,2019-04-07T18:30:00Z,30.3085,-88.1395,0.0,20.02,11111222 
DISL,ioos:station:DISL:CATA:1,2019-04-07T19:30:00Z,30.3085,-88.1395,0.0,20.04,11111222 
DISL,ioos:station:DISL:CATA:1,2019-04-07T20:30:00Z,30.3085,-88.1395,0.0,20.06,11111222 
DISL,ioos:station:DISL:CATA:1,2019-04-07T21:30:00Z,30.3085,-88.1395,0.0,20.06,11111222 
DISL,ioos:station:DISL:CATA:1,2019-04-07T22:30:00Z,30.3085,-88.1395,0.0,20.0,11111222 
DISL,ioos:station:DISL:CATA:1,2019-04-07T23:30:00Z,30.3085,-88.1395,0.0,19.99,11111222 
DISL,ioos:station:DISL:CATA:1,2019-04-08T00:30:00Z,30.3085,-88.1395,0.0,20.13,11111222 
DISL,ioos:station:DISL:CATA:1,2019-04-08T01:30:00Z,30.3085,-88.1395,0.0,20.2,11111222 
DISL,ioos:station:DISL:CATA:1,2019-04-08T02:30:00Z,30.3085,-88.1395,0.0,20.06,11111222 
DISL,ioos:station:DISL:CATA:1,2019-04-08T03:30:00Z,30.3085,-88.1395,0.0,20.09,11111222 
DISL,ioos:station:DISL:CATA:1,2019-04-08T04:30:00Z,30.3085,-88.1395,0.0,20.13,11111222 
DISL,ioos:station:DISL:CATA:1,2019-04-08T05:30:00Z,30.3085,-88.1395,0.0,20.09,11111222 
DISL,ioos:station:DISL:CATA:1,2019-04-08T06:30:00Z,30.3085,-88.1395,0.0,20.06,11111222 
DISL,ioos:station:DISL:CATA:1,2019-04-08T07:30:00Z,30.3085,-88.1395,0.0,20.05,11111222 
DISL,ioos:station:DISL:CATA:1,2019-04-08T08:30:00Z,30.3085,-88.1395,0.0,20.04,11111222 
DISL,ioos:station:DISL:CATA:1,2019-04-08T09:30:00Z,30.3085,-88.1395,0.0,19.98,11111222 
DISL,ioos:station:DISL:CATA:1,2019-04-08T10:30:00Z,30.3085,-88.1395,0.0,19.91,11111222 
DISL,ioos:station:DISL:CATA:1,2019-04-08T11:30:00Z,30.3085,-88.1395,0.0,19.89,11111222 
DISL,ioos:station:DISL:CATA:1,2019-04-08T12:30:00Z,30.3085,-88.1395,0.0,19.89,11111222 
DISL,ioos:station:DISL:CATA:1,2019-04-08T13:30:00Z,30.3085,-88.1395,0.0,19.88,11111222 
DISL,ioos:station:DISL:CATA:1,2019-04-08T14:30:00Z,30.3085,-88.1395,0.0,19.9,11111222 
DISL,ioos:station:DISL:CATA:1,2019-04-08T15:30:00Z,30.3085,-88.1395,0.0,20.0,11111222 
DISL,ioos:station:DISL:CATA:1,2019-04-08T16:30:00Z,30.3085,-88.1395,0.0,19.94,11111222 
DISL,ioos:station:DISL:CATA:1,2019-04-08T17:30:00Z,30.3085,-88.1395,0.0,19.97,11111222 
DISL,ioos:station:DISL:CATA:1,2019-04-08T18:30:00Z,30.3085,-88.1395,0.0,20.14,11111222 
DISL,ioos:station:DISL:CATA:1,2019-04-08T19:30:00Z,30.3085,-88.1395,0.0,20.45,11111222 
DISL,ioos:station:DISL:CATA:1,2019-04-08T20:30:00Z,30.3085,-88.1395,0.0,20.52,11111222 
DISL,ioos:station:DISL:CATA:1,2019-04-08T21:30:00Z,30.3085,-88.1395,0.0,20.58,11111222 
DISL,ioos:station:DISL:CATA:1,2019-04-08T22:30:00Z,30.3085,-88.1395,0.0,20.54,11111222 
DISL,ioos:station:DISL:CATA:1,2019-04-08T23:30:00Z,30.3085,-88.1395,0.0,20.6,11111222 
DISL,ioos:station:DISL:CATA:1,2019-04-09T00:30:00Z,30.3085,-88.1395,0.0,20.53,11111222 
DISL,ioos:station:DISL:CATA:1,2019-04-09T01:30:00Z,30.3085,-88.1395,0.0,20.47,11111222 
DISL,ioos:station:DISL:CATA:1,2019-04-09T02:30:00Z,30.3085,-88.1395,0.0,20.44,11111222 
DISL,ioos:station:DISL:CATA:1,2019-04-09T03:30:00Z,30.3085,-88.1395,0.0,20.36,11111222 
DISL,ioos:station:DISL:CATA:1,2019-04-09T04:30:00Z,30.3085,-88.1395,0.0,20.27,11111222 
DISL,ioos:station:DISL:CATA:1,2019-04-09T05:30:00Z,30.3085,-88.1395,0.0,20.22,11111222 
DISL,ioos:station:DISL:CATA:1,2019-04-09T06:30:00Z,30.3085,-88.1395,0.0,20.07,11111222 
DISL,ioos:station:DISL:CATA:1,2019-04-09T07:30:00Z,30.3085,-88.1395,0.0,20.08,11111222 
DISL,ioos:station:DISL:CATA:1,2019-04-09T08:30:00Z,30.3085,-88.1395,0.0,20.06,11111222 
DISL,ioos:station:DISL:CATA:1,2019-04-09T09:30:00Z,30.3085,-88.1395,0.0,20.11,11111222 
DISL,ioos:station:DISL:CATA:1,2019-04-09T10:30:00Z,30.3085,-88.1395,0.0,20.1,11111222 
DISL,ioos:station:DISL:CATA:1,2019-04-09T11:30:00Z,30.3085,-88.1395,0.0,20.26,11111222 
DISL,ioos:station:DISL:CATA:1,2019-04-09T12:30:00Z,30.3085,-88.1395,0.0,20.22,11111222 
DISL,ioos:station:DISL:CATA:1,2019-04-09T13:30:00Z,30.3085,-88.1395,0.0,20.31,11111222 
DISL,ioos:station:DISL:CATA:1,2019-04-09T14:30:00Z,30.3085,-88.1395,0.0,20.37,11111222 
DISL,ioos:station:DISL:CATA:1,2019-04-09T15:30:00Z,30.3085,-88.1395,0.0,20.18,11111222 
DISL,ioos:station:DISL:CATA:1,2019-04-09T16:30:00Z,30.3085,-88.1395,0.0,20.29,11111222 
DISL,ioos:station:DISL:CATA:1,2019-04-09T17:00:00Z,30.3085,-88.1395,0.0,20.42,11111222 
DISL,ioos:station:DISL:CATA:1,2019-04-09T18:30:00Z,30.3085,-88.1395,0.0,20.88,11111222 
DISL,ioos:station:DISL:CATA:1,2019-04-09T19:30:00Z,30.3085,-88.1395,0.0,20.98,11111222 
DISL,ioos:station:DISL:CATA:1,2019-04-09T20:30:00Z,30.3085,-88.1395,0.0,21.06,11111222 
DISL,ioos:station:DISL:CATA:1,2019-04-09T21:30:00Z,30.3085,-88.1395,0.0,20.83,11111222 
DISL,ioos:station:DISL:CATA:1,2019-04-09T22:30:00Z,30.3085,-88.1395,0.0,20.82,11111222 
DISL,ioos:station:DISL:CATA:1,2019-04-09T23:30:00Z,30.3085,-88.1395,0.0,21.21,11111222 
DISL,ioos:station:DISL:CATA:1,2019-04-10T00:30:00Z,30.3085,-88.1395,0.0,21.14,11111222 
DISL,ioos:station:DISL:CATA:1,2019-04-10T01:30:00Z,30.3085,-88.1395,0.0,20.98,11111222 
DISL,ioos:station:DISL:CATA:1,2019-04-10T02:30:00Z,30.3085,-88.1395,0.0,20.88,11111222 
DISL,ioos:station:DISL:CATA:1,2019-04-10T03:30:00Z,30.3085,-88.1395,0.0,20.85,11111222 
DISL,ioos:station:DISL:CATA:1,2019-04-10T04:30:00Z,30.3085,-88.1395,0.0,20.81,11111222 
DISL,ioos:station:DISL:CATA:1,2019-04-10T05:30:00Z,30.3085,-88.1395,0.0,20.78,11111222 
DISL,ioos:station:DISL:CATA:1,2019-04-10T06:30:00Z,30.3085,-88.1395,0.0,20.75,11111222 
DISL,ioos:station:DISL:CATA:1,2019-04-10T07:30:00Z,30.3085,-88.1395,0.0,20.75,11111222 
DISL,ioos:station:DISL:CATA:1,2019-04-10T08:30:00Z,30.3085,-88.1395,0.0,20.58,11111222 
DISL,ioos:station:DISL:CATA:1,2019-04-10T09:30:00Z,30.3085,-88.1395,0.0,20.47,11111222 
DISL,ioos:station:DISL:CATA:1,2019-04-10T10:30:00Z,30.3085,-88.1395,0.0,20.4,11111222 
DISL,ioos:station:DISL:CATA:1,2019-04-10T11:30:00Z,30.3085,-88.1395,0.0,20.34,11111222 
DISL,ioos:station:DISL:CATA:1,2019-04-10T12:30:00Z,30.3085,-88.1395,0.0,20.62,11111222 
DISL,ioos:station:DISL:CATA:1,2019-04-10T13:30:00Z,30.3085,-88.1395,0.0,20.61,11111222 
DISL,ioos:station:DISL:CATA:1,2019-04-10T14:30:00Z,30.3085,-88.1395,0.0,20.61,11111222 
DISL,ioos:station:DISL:CATA:1,2019-04-10T15:30:00Z,30.3085,-88.1395,0.0,20.67,11111222 
DISL,ioos:station:DISL:CATA:1,2019-04-10T16:30:00Z,30.3085,-88.1395,0.0,20.64,11111222 
DISL,ioos:station:DISL:CATA:1,2019-04-10T17:30:00Z,30.3085,-88.1395,0.0,20.88,11111222 
DISL,ioos:station:DISL:CATA:1,2019-04-10T18:30:00Z,30.3085,-88.1395,0.0,21.44,11111222 
DISL,ioos:station:DISL:CATA:1,2019-04-10T19:30:00Z,30.3085,-88.1395,0.0,22.34,11111222 
DISL,ioos:station:DISL:CATA:1,2019-04-10T20:30:00Z,30.3085,-88.1395,0.0,22.84,11111222 
DISL,ioos:station:DISL:CATA:1,2019-04-10T21:30:00Z,30.3085,-88.1395,0.0,23.3,11111222 
DISL,ioos:station:DISL:CATA:1,2019-04-10T22:30:00Z,30.3085,-88.1395,0.0,22.52,11111222 
DISL,ioos:station:DISL:CATA:1,2019-04-10T23:30:00Z,30.3085,-88.1395,0.0,22.43,11111222 
DISL,ioos:station:DISL:CATA:1,2019-04-11T00:30:00Z,30.3085,-88.1395,0.0,22.4,11111222 
DISL,ioos:station:DISL:CATA:1,2019-04-11T01:30:00Z,30.3085,-88.1395,0.0,21.53,11111222 
DISL,ioos:station:DISL:CATA:1,2019-04-11T02:30:00Z,30.3085,-88.1395,0.0,21.14,11111222 
DISL,ioos:station:DISL:CATA:1,2019-04-11T03:30:00Z,30.3085,-88.1395,0.0,21.12,11111222 
DISL,ioos:station:DISL:CATA:1,2019-04-11T04:30:00Z,30.3085,-88.1395,0.0,21.22,11111222 
DISL,ioos:station:DISL:CATA:1,2019-04-11T05:30:00Z,30.3085,-88.1395,0.0,21.36,11111222 
DISL,ioos:station:DISL:CATA:1,2019-04-11T06:30:00Z,30.3085,-88.1395,0.0,21.35,11111222 
DISL,ioos:station:DISL:CATA:1,2019-04-11T07:30:00Z,30.3085,-88.1395,0.0,21.45,11111222 
DISL,ioos:station:DISL:CATA:1,2019-04-11T08:30:00Z,30.3085,-88.1395,0.0,21.47,11111222 
DISL,ioos:station:DISL:CATA:1,2019-04-11T09:30:00Z,30.3085,-88.1395,0.0,21.46,11111222 
DISL,ioos:station:DISL:CATA:1,2019-04-11T10:30:00Z,30.3085,-88.1395,0.0,21.55,11111222 
DISL,ioos:station:DISL:CATA:1,2019-04-11T11:30:00Z,30.3085,-88.1395,0.0,21.43,11111222 
DISL,ioos:station:DISL:CATA:1,2019-04-11T12:30:00Z,30.3085,-88.1395,0.0,21.38,11111222 
DISL,ioos:station:DISL:CATA:1,2019-04-11T13:30:00Z,30.3085,-88.1395,0.0,21.39,11111222 
DISL,ioos:station:DISL:CATA:1,2019-04-11T14:30:00Z,30.3085,-88.1395,0.0,21.69,11111222 
DISL,ioos:station:DISL:CATA:1,2019-04-11T15:30:00Z,30.3085,-88.1395,0.0,22.22,11111222 
DISL,ioos:station:DISL:CATA:1,2019-04-11T16:30:00Z,30.3085,-88.1395,0.0,22.63,11111222 
DISL,ioos:station:DISL:CATA:1,2019-04-11T17:30:00Z,30.3085,-88.1395,0.0,22.95,11111222 
DISL,ioos:station:DISL:CATA:1,2019-04-11T18:30:00Z,30.3085,-88.1395,0.0,22.96,11111222 
DISL,ioos:station:DISL:CATA:1,2019-04-11T19:30:00Z,30.3085,-88.1395,0.0,23.22,11111222 
DISL,ioos:station:DISL:CATA:1,2019-04-11T20:30:00Z,30.3085,-88.1395,0.0,23.54,11111222 
DISL,ioos:station:DISL:CATA:1,2019-04-11T21:30:00Z,30.3085,-88.1395,0.0,23.46,11111222 
DISL,ioos:station:DISL:CATA:1,2019-04-11T22:30:00Z,30.3085,-88.1395,0.0,23.32,11111222 
DISL,ioos:station:DISL:CATA:1,2019-04-11T23:30:00Z,30.3085,-88.1395,0.0,23.53,11111222 
DISL,ioos:station:DISL:CATA:1,2019-04-12T00:30:00Z,30.3085,-88.1395,0.0,23.32,11111222 
DISL,ioos:station:DISL:CATA:1,2019-04-12T01:30:00Z,30.3085,-88.1395,0.0,22.83,11111222 
DISL,ioos:station:DISL:CATA:1,2019-04-12T02:30:00Z,30.3085,-88.1395,0.0,22.65,11111222 
DISL,ioos:station:DISL:CATA:1,2019-04-12T03:30:00Z,30.3085,-88.1395,0.0,22.41,11111222 
DISL,ioos:station:DISL:CATA:1,2019-04-12T04:30:00Z,30.3085,-88.1395,0.0,22.34,11111222 
DISL,ioos:station:DISL:CATA:1,2019-04-12T05:30:00Z,30.3085,-88.1395,0.0,22.24,11111222 
DISL,ioos:station:DISL:CATA:1,2019-04-12T06:30:00Z,30.3085,-88.1395,0.0,22.19,11111222 
DISL,ioos:station:DISL:CATA:1,2019-04-12T07:30:00Z,30.3085,-88.1395,0.0,22.17,11111222 